Location: Aula-Vintri
(58.3875°N, 22.4322°E)
Time: 08:34:51
(UTC+00:00)

SL-16 R/B - Pass Details

Date: 13 October 2019
Orbit: 985 x 1007 km, 99.4° (Epoch: 14 November)

Event Time Altitude Azimuth Distance (km) Brightness Sun altitude
Exits shadow 21:41:33 24° 43° (NE) 1,960 4.3 -39.1°
Maximum altitude 21:41:36 24° 42° (NE) 1,960 4.3 -39.1°
Drops below altitude 10° 21:46:25 10° 352° (N) 2,799 5.6 -39.2°
Sets 21:49:22 0° 339° (NNW) 3,752 6.4 -39.3°
